Weather History for Hamilton Island, QU

Change the Weather History Date:

Saturday, January 19, 2013

  Actual Average Record
Temperature  
Mean Temperature 82 °F -  
Max Temperature 86 °F - - ()
Min Temperature 77 °F - - ()
Cooling Degree Days 16    
Growing Degree Days 32 (Base 50)    
Moisture  
Dew Point 72 °F    
Average Humidity 73    
Maximum Humidity 89    
Minimum Humidity 51    
Precipitation  
Precipitation 0.00 in - - ()
Sea Level Pressure  
Sea Level Pressure 29.76 in    
Wind  
Wind Speed 7 mph ()    
Max Wind Speed 18 mph    
Max Gust Speed -    
T = Trace of Precipitation, MM = Missing Value Source: Averaged Metar Reports

Daily Weather History Graph

Daily Weather History Graph

Search for Another Location

Airport:

Trip Planner

Search our weather history database for the weather conditions in past years. The results will help you decide how hot, cold, wet, or windy it might be!

Date:

Astronomy

Jan. 19, 2013 Rise Set
Actual Time 5:39 AM AEST 6:50 PM AEST
Civil Twilight 5:15 AM AEST 7:14 PM AEST
Nautical Twilight 4:46 AM AEST 7:42 PM AEST
Astronomical Twilight 4:17 AM AEST 8:11 PM AEST
Moon 12:20 PM AEST (1/19) 11:57 PM AEST (1/19)
Length of Visible Light 13h 58m
Length of Day
13h 11m
Waxing Crescent, 51% of the Moon is Illuminated
Jan 19
Waxing Crescent
Jan 27
Full
Feb 3
Last Quarter
Feb 10
New
Feb 18
First Quarter

Hourly Weather History & Observations

Time (AEST) Temp. Heat Index Dew Point Humidity Pressure Visibility Wind Dir Wind Speed Gust Speed Precip Events Conditions
12:00 AM 79 °F - 73 °F 76% 29.81 in - North 3.5 mph - -  
12:00 AM 78.8 °F - 73.4 °F 83% 29.80 in - North 3.5 mph - N/A   Unknown
1:00 AM 78.8 °F - 73.4 °F 83% 29.80 in - NW 4.6 mph - N/A   Unknown
1:30 AM 78.8 °F - 73.4 °F 83% 29.77 in - NNW 4.6 mph - N/A   Unknown
2:00 AM 77.0 °F - 73.4 °F 89% 29.77 in - NNW 4.6 mph - N/A   Unknown
2:30 AM 78.8 °F - 73.4 °F 83% 29.77 in - North 5.8 mph - N/A   Unknown
3:00 AM 79 °F - 72 °F 75% 29.76 in - North 6.9 mph - -  
3:00 AM 78.8 °F - 73.4 °F 83% 29.77 in - North 6.9 mph - N/A   Unknown
4:00 AM 77.0 °F - 73.4 °F 89% 29.74 in - NNE 4.6 mph - N/A   Unknown
4:30 AM 77.0 °F - 71.6 °F 83% 29.74 in - NNE 5.8 mph - N/A   Unknown
5:00 AM 77.0 °F - 71.6 °F 83% 29.77 in - NNE 4.6 mph - N/A   Unknown
5:30 AM 77.0 °F - 71.6 °F 83% 29.77 in - North 4.6 mph - N/A   Unknown
6:00 AM 78 °F - 72 °F 77% 29.78 in - North 4.6 mph - -  
6:00 AM 78.8 °F - 71.6 °F 78% 29.77 in - North 4.6 mph - N/A   Unknown
6:30 AM 78.8 °F - 71.6 °F 78% 29.77 in - NNE 3.5 mph - N/A   Unknown
7:00 AM 80.6 °F 84.6 °F 71.6 °F 74% 29.80 in - North 3.5 mph - N/A   Unknown
7:30 AM 80.6 °F 84.6 °F 71.6 °F 74% 29.80 in - NNE 5.8 mph - N/A   Unknown
8:00 AM 82.4 °F 88.2 °F 73.4 °F 74% 29.80 in - NE 5.8 mph - N/A   Unknown
8:30 AM 84.2 °F 89.6 °F 71.6 °F 66% 29.80 in - NE 10.4 mph - N/A   Unknown
9:00 AM 84 °F - 71 °F 56% 29.79 in - ENE 11.5 mph - -  
9:00 AM 84.2 °F 88.4 °F 69.8 °F 62% 29.80 in - ENE 11.5 mph - N/A   Unknown
9:30 AM 86.0 °F 91.8 °F 71.6 °F 62% 29.80 in - NE 13.8 mph - N/A   Unknown
10:00 AM 86.0 °F 90.4 °F 69.8 °F 58% 29.80 in - NE 10.4 mph - N/A   Unknown
10:30 AM 86.0 °F 88.2 °F 66.2 °F 51% 29.77 in - NE 11.5 mph - N/A   Unknown
11:00 AM 86.0 °F 89.4 °F 68.0 °F 55% 29.77 in - East 12.7 mph - N/A   Unknown
11:30 AM 86.0 °F 90.4 °F 69.8 °F 58% 29.77 in - East 13.8 mph - N/A   Unknown
12:00 PM 84 °F - 72 °F 59% 29.75 in - East 17.3 mph - -  
12:00 PM 84.2 °F 89.6 °F 71.6 °F 66% 29.74 in - East 17.3 mph - N/A   Unknown
12:30 PM 84.2 °F 90.9 °F 73.4 °F 70% 29.74 in - East 18.4 mph - N/A   Unknown
1:00 PM 84.2 °F 89.6 °F 71.6 °F 66% 29.74 in - East 13.8 mph - N/A   Unknown
1:30 PM 84.2 °F 89.6 °F 71.6 °F 66% 29.74 in - East 12.7 mph - N/A   Unknown
2:00 PM 86.0 °F 91.8 °F 71.6 °F 62% 29.74 in - ESE 6.9 mph - N/A   Unknown
2:30 PM 86.0 °F 91.8 °F 71.6 °F 62% 29.74 in - West 6.9 mph - N/A   Unknown
3:00 PM 85 °F - 72 °F 56% 29.72 in - ESE 6.9 mph - -  
3:00 PM 84.2 °F 89.6 °F 71.6 °F 66% 29.71 in - ESE 6.9 mph - N/A   Unknown
3:30 PM 84.2 °F 90.9 °F 73.4 °F 70% 29.71 in - West 10.4 mph - N/A   Unknown
4:00 PM 84.2 °F 89.6 °F 71.6 °F 66% 29.71 in - SW 6.9 mph - N/A   Unknown
4:30 PM 84.2 °F 89.6 °F 71.6 °F 66% 29.71 in - NE 10.4 mph - N/A   Unknown
5:00 PM 84.2 °F 89.6 °F 71.6 °F 66% 29.71 in - NE 16.1 mph - N/A   Unknown
5:30 PM 82.4 °F 87.2 °F 71.6 °F 70% 29.74 in - NE 11.5 mph - N/A   Unknown
6:00 PM 82 °F - 73 °F 67% 29.74 in - NE 12.7 mph - -  
6:00 PM 82.4 °F 88.2 °F 73.4 °F 74% 29.74 in - NE 12.7 mph - N/A   Unknown
6:30 PM 82.4 °F 87.2 °F 71.6 °F 70% 29.74 in - NNE 11.5 mph - N/A   Unknown
7:00 PM 80.6 °F 85.4 °F 73.4 °F 79% 29.74 in - NNE 9.2 mph - N/A   Unknown
7:30 PM 80.6 °F 85.4 °F 73.4 °F 79% 29.77 in - NNE 8.1 mph - N/A   Unknown
8:00 PM 80.6 °F 85.4 °F 73.4 °F 79% 29.77 in - NNE 10.4 mph - N/A   Unknown
8:30 PM 80.6 °F 85.4 °F 73.4 °F 79% 29.77 in - NNE 5.8 mph - N/A   Unknown
9:00 PM 80 °F - 74 °F 77% 29.77 in - NE 10.4 mph - -  
9:00 PM 80.6 °F 85.4 °F 73.4 °F 79% 29.77 in - NE 10.4 mph - N/A   Unknown
9:30 PM 80.6 °F 86.2 °F 75.2 °F 84% 29.77 in - ENE 11.5 mph - N/A   Unknown
10:00 PM 80.6 °F 86.2 °F 75.2 °F 84% 29.77 in - NE 11.5 mph - N/A   Unknown
10:30 PM 80.6 °F 86.2 °F 75.2 °F 84% 29.77 in - NE 10.4 mph - N/A   Unknown
11:00 PM 80.6 °F 86.2 °F 75.2 °F 84% 29.77 in - NE 10.4 mph - N/A   Unknown
11:30 PM 80.6 °F 86.2 °F 75.2 °F 84% 29.74 in - NE 9.2 mph - N/A   Unknown